Stations météo

réclame
Mon MeteoGroup
Gilze-Rijen, Pays-Bas (6350): Température de l'air & dewpoint: 15.01.2019 17:00:00 - 21.01.2019 17:00:00 (CET)Gilze-Rijen, Pays-Bas (6350): Température de l'air 5cm: 15.01.2019 17:00:00 - 21.01.2019 17:00:00 (CET)Gilze-Rijen, Pays-Bas (6350): Vitesse du vent & gusts: 15.01.2019 17:00:00 - 21.01.2019 17:00:00 (CET)Gilze-Rijen, Pays-Bas (6350): Direction du vent: 15.01.2019 17:00:00 - 21.01.2019 17:00:00 (CET)Gilze-Rijen, Pays-Bas (6350): reduced air pressure: 15.01.2019 17:00:00 - 21.01.2019 17:00:00 (CET)Gilze-Rijen, Pays-Bas (6350): visibility: 15.01.2019 17:00:00 - 21.01.2019 17:00:00 (CET)Gilze-Rijen, Pays-Bas (6350): Quantités de précipitations: 15.01.2019 17:00:00 - 21.01.2019 17:00:00 (CET)
Date & Time tt [°C] td [°C] tt 5cm [°C] ff [km/h] ff [knt] fx [km/h] fx [knt] dd ppp [hPa] vv [km] rr [mm]
21.01.2019 17:00:00 1,0 -2,8 -1,4 8 4 11 6 SSW 1020,7 10 0,0
21.01.2019 16:00:00 3,2 -2,2 3,0 8 4 11 6 SSW 1021,0 10 0,0
21.01.2019 15:00:00 3,8 -2,6 4,2 8 4 14 8 SW 1021,5 10 0,0
21.01.2019 14:00:00 3,2 -1,9 4,1 9 5 14 8 SW 1022,3 10 0,0
21.01.2019 13:00:00 2,0 -2,1 3,0 8 4 14 8 SW 1022,9 10 0,0
21.01.2019 12:00:00 0,7 -2,1 1,3 5 3 11 6 - 1023,6 10 0,0
21.01.2019 11:00:00 -1,5 -3,4 -1,7 2 1 7 4 - 1023,9 10 0,0
21.01.2019 10:00:00 -4,8 -6,1 -5,3 5 3 7 4 S 1023,9 10 0,0
21.01.2019 09:00:00 -8,9 -9,5 -11,3 4 2 7 4 S 1023,9 10 0,0
21.01.2019 08:00:00 -8,6 -9,8 -11,6 4 2 7 4 - 1023,9 10 0,0
21.01.2019 07:00:00 -9,1 -10,2 -11,1 5 3 7 4 WNW 1023,2 10 0,0
21.01.2019 06:00:00 -7,8 -8,7 -11,3 4 2 7 4 S 1023,2 10 0,0
21.01.2019 05:00:00 -8,6 -9,3 -11,0 4 2 7 4 WNW 1023,5 10 0,0
21.01.2019 04:00:00 -8,7 -9,2 -10,8 2 1 4 2 SW 1023,4 7 0,0
21.01.2019 03:00:00 -7,6 -8,3 -10,2 2 1 4 2 SW 1023,5 8 0,0
21.01.2019 02:00:00 -6,7 -6,9 -10,2 2 1 4 2 WNW 1023,3 9 0,0
21.01.2019 01:00:00 -5,9 -6,3 -9,9 0 0 7 4 N 1023,2 9 0,0
21.01.2019 00:00:00 -6,4 -7,2 -9,1 5 3 7 4 WNW 1023,0 10 0,0
20.01.2019 23:00:00 -5,3 -6,6 -9,0 0 0 4 2 N 1022,4 10 0,0
20.01.2019 22:00:00 -3,0 -4,7 -6,4 4 2 7 4 - 1022,3 10 0,0
20.01.2019 21:00:00 -2,9 -5,0 -6,8 2 1 7 4 - 1021,7 10 0,0
20.01.2019 20:00:00 -3,0 -6,2 -6,8 5 3 7 4 N 1021,2 10 0,0
20.01.2019 19:00:00 -3,4 -6,3 -7,8 8 4 11 6 NNE 1020,2 10 0,0
20.01.2019 18:00:00 -2,9 -6,3 -5,8 8 4 14 8 NE 1019,8 10 0,0
20.01.2019 17:00:00 -0,8 -4,8 -1,8 11 6 18 10 NE 1019,2 10 0,0
20.01.2019 16:00:00 2,3 -5,2 1,7 11 6 18 10 ENE 1018,6 10 0,0
20.01.2019 15:00:00 2,6 -5,8 2,6 13 7 22 12 ENE 1018,3 10 0,0
20.01.2019 14:00:00 2,5 -4,5 2,8 11 6 18 10 NE 1018,2 10 0,0
20.01.2019 13:00:00 1,8 -4,0 2,3 9 5 14 8 NE 1018,0 10 0,0
20.01.2019 12:00:00 0,5 -5,1 1,0 9 5 14 8 E 1018,0 10 0,0
20.01.2019 11:00:00 -1,1 -5,4 -1,2 11 6 14 8 E 1017,7 10 0,0
20.01.2019 10:00:00 -2,8 -5,9 -3,4 11 6 14 8 E 1016,9 10 0,0
20.01.2019 09:00:00 -5,1 -7,3 -8,5 8 4 11 6 E 1016,3 10 0,0
20.01.2019 08:00:00 -5,7 -7,4 -9,1 9 5 11 6 E 1015,3 10 0,0
20.01.2019 07:00:00 -5,2 -6,8 -8,9 5 3 11 6 E 1014,9 10 0,0
20.01.2019 06:00:00 -5,2 -6,4 -8,5 5 3 14 8 E 1014,5 10 0,0
20.01.2019 05:00:00 -3,8 -5,9 -6,7 11 6 18 10 E 1014,3 10 0,0
20.01.2019 04:00:00 -2,9 -5,4 -4,2 11 6 14 8 ESE 1014,3 10 0,0
20.01.2019 03:00:00 -2,9 -5,4 -4,2 11 6 18 10 ESE 1014,3 10 0,0
20.01.2019 02:00:00 -2,7 -5,2 -4,3 11 6 18 10 E 1014,0 10 0,0
20.01.2019 01:00:00 -2,2 -4,8 -3,7 11 6 18 10 ESE 1014,2 10 0,0
20.01.2019 00:00:00 -1,7 -4,5 -3,3 11 6 18 10 ESE 1014,0 10 0,0
19.01.2019 23:00:00 -1,3 -4,4 -3,2 11 6 18 10 ESE 1013,7 10 0,0
19.01.2019 22:00:00 -1,3 -4,3 -3,0 11 6 14 8 ESE 1013,6 10 0,0
19.01.2019 21:00:00 -1,6 -4,7 -4,5 8 4 18 10 E 1013,5 10 0,0
19.01.2019 20:00:00 0,0 -3,9 -1,6 11 6 22 12 ESE 1013,5 10 0,0
19.01.2019 19:00:00 -0,1 -3,4 -1,5 11 6 14 8 ESE 1013,5 10 0,0
19.01.2019 18:00:00 -0,4 -3,2 -2,5 9 5 14 8 E 1013,5 10 0,0
19.01.2019 17:00:00 1,4 -2,6 0,3 11 6 18 10 E 1013,5 10 0,0
19.01.2019 16:00:00 2,4 -2,1 2,0 11 6 25 14 SE 1013,7 10 0,0
19.01.2019 15:00:00 2,5 -1,6 2,4 15 8 22 12 SE 1014,2 10 0,0
19.01.2019 14:00:00 2,2 -1,9 2,7 16 9 25 14 SE 1014,9 10 0,0
19.01.2019 13:00:00 1,6 -1,7 2,1 15 8 25 14 ESE 1015,4 10 0,0
19.01.2019 12:00:00 0,6 -2,0 1,1 15 8 22 12 SE 1016,2 10 0,0
19.01.2019 11:00:00 -0,7 -2,4 -0,7 11 6 18 10 ESE 1016,6 10 0,0
19.01.2019 10:00:00 -2,1 -3,3 -2,8 11 6 18 10 ESE 1016,7 10 0,0
19.01.2019 09:00:00 -2,9 -3,9 -3,9 9 5 14 8 ESE 1016,6 10 0,0
19.01.2019 08:00:00 -2,8 -3,9 -3,6 11 6 18 10 SE 1016,5 10 0,0
19.01.2019 07:00:00 -2,8 -3,7 -3,5 11 6 14 8 SE 1016,8 10 0,0
19.01.2019 06:00:00 -2,6 -3,4 -3,5 11 6 14 8 ESE 1017,1 7 0,0
19.01.2019 05:00:00 -2,8 -3,3 -4,0 8 4 11 6 ESE 1017,4 4,2 0,0
19.01.2019 04:00:00 -2,7 -2,8 -3,6 5 3 11 6 ESE 1017,9 2,7 0,0
19.01.2019 03:00:00 -2,0 -2,1 -2,0 8 4 11 6 SE 1018,3 0,5 0,0
19.01.2019 02:00:00 -1,4 -1,5 -1,4 5 3 14 8 SSE 1018,7 1,6 0,0
19.01.2019 01:00:00 -1,0 -1,1 -0,9 8 4 14 8 SSE 1019,1 2,2 0,0
19.01.2019 00:00:00 -1,0 -1,1 -1,0 8 4 14 8 SE 1019,3 1,4 0,0
18.01.2019 23:00:00 -1,2 -1,3 -1,2 8 4 14 8 ESE 1019,3 1,1 0,0
18.01.2019 22:00:00 -1,1 -1,3 -1,1 9 5 14 8 SSE 1019,4 0,9 0,0
18.01.2019 21:00:00 -1,1 -1,2 -1,1 11 6 14 8 SE 1019,4 0,5 0,0
18.01.2019 20:00:00 -1,1 -1,2 -1,1 9 5 14 8 SSE 1019,6 1,0 0,0
18.01.2019 19:00:00 -1,1 -1,2 -1,0 8 4 14 8 SE 1019,8 1,1 0,0
18.01.2019 18:00:00 -1,0 -1,1 -0,9 9 5 14 8 SSE 1019,9 0,7 0,0
18.01.2019 17:00:00 -0,7 -0,8 -0,6 11 6 18 10 SE 1020,1 0,8 0,0
18.01.2019 16:00:00 0,1 -0,1 0,2 13 7 29 16 S 1020,0 3,2 0,0
18.01.2019 15:00:00 1,2 0,3 1,5 8 4 14 8 SSE 1020,0 10 0,0
18.01.2019 14:00:00 2,4 0,6 2,6 11 6 14 8 S 1020,1 10 0,0
18.01.2019 13:00:00 3,4 0,6 3,6 9 5 18 10 S 1020,4 10 0,0
18.01.2019 12:00:00 2,9 0,6 3,0 11 6 14 8 S 1020,5 10 0,0
18.01.2019 11:00:00 0,7 -0,2 0,1 5 3 7 4 S 1020,7 9 0,0
18.01.2019 10:00:00 -1,4 -1,5 -2,8 5 3 7 4 SSW 1020,3 5 0,0
18.01.2019 09:00:00 -3,9 -4,0 -6,0 4 2 11 6 SSE 1019,7 6 0,0
18.01.2019 08:00:00 -4,6 -4,7 -6,7 2 1 7 4 S 1019,1 0,5 0,0
18.01.2019 07:00:00 -3,2 -3,3 -6,4 4 2 4 2 S 1018,7 0,8 0,0
18.01.2019 06:00:00 -2,2 -2,2 -5,2 4 2 7 4 SSW 1018,2 6 0,0
18.01.2019 05:00:00 -2,0 -2,4 -4,5 4 2 7 4 SW 1017,9 5 0,0
18.01.2019 04:00:00 -0,7 -1,0 -3,3 8 4 14 8 W 1017,3 10 0,0
18.01.2019 03:00:00 -0,4 -1,0 -2,0 11 6 18 10 W 1016,6 10 0,0
18.01.2019 02:00:00 0,6 -0,2 -0,5 11 6 14 8 W 1015,9 10 0,0
18.01.2019 01:00:00 0,6 -0,1 -0,6 9 5 14 8 W 1015,2 10 0,0
18.01.2019 00:00:00 1,4 0,2 0,7 13 7 22 12 NW 1014,5 10 0,1
17.01.2019 23:00:00 0,5 0,1 -0,5 8 4 18 10 WSW 1013,8 10 0,1
17.01.2019 22:00:00 1,6 0,5 0,4 8 4 32 18 - 1013,2 10 0,4
17.01.2019 21:00:00 1,0 0,5 0,5 5 3 22 12 WNW 1012,1 10 1,1
17.01.2019 20:00:00 1,5 0,5 0,5 9 5 36 19 W 1010,8 10 0,0
17.01.2019 19:00:00 0,9 0,4 0,2 9 5 22 12 W 1009,7 10 0,0
17.01.2019 18:00:00 1,6 1,0 1,2 24 13 40 21 NW 1008,2 10 1,3
17.01.2019 17:00:00 2,9 1,6 2,5 16 9 40 21 WSW 1006,5 10 0,9
17.01.2019 16:00:00 3,1 1,4 2,9 24 13 50 27 W 1006,2 10 0,2
17.01.2019 15:00:00 4,1 0,6 3,5 29 16 47 25 W 1005,2 10 0,0
17.01.2019 14:00:00 4,4 1,9 4,3 16 9 43 23 W 1004,6 10 0,2
17.01.2019 13:00:00 4,5 2,8 4,4 22 12 40 21 NW 1003,9 10 0,2
17.01.2019 12:00:00 3,6 3,0 3,3 13 7 36 19 WSW 1003,1 7 0,2
17.01.2019 11:00:00 2,3 1,9 2,2 8 4 43 23 WSW 1002,5 10 1,8
17.01.2019 10:00:00 4,0 2,9 3,8 18 10 29 16 W 1002,2 9 0,5
17.01.2019 09:00:00 5,0 4,3 4,6 13 7 29 16 SW 1001,6 6 0,0
17.01.2019 08:00:00 4,7 4,2 3,7 13 7 22 12 SSW 1001,5 4,2 0,0
17.01.2019 07:00:00 4,1 3,7 3,2 11 6 18 10 SSW 1001,6 5 0,0
17.01.2019 06:00:00 4,1 3,6 3,1 11 6 22 12 SW 1002,0 8 0,0
17.01.2019 05:00:00 4,5 4,1 3,6 9 5 18 10 SW 1002,4 8 0,0
17.01.2019 04:00:00 4,8 4,3 4,2 11 6 22 12 SW 1002,3 10 0,0
17.01.2019 03:00:00 4,5 4,1 3,9 11 6 18 10 SW 1002,5 10 0,0
17.01.2019 02:00:00 4,3 4,1 3,9 9 5 14 8 SSW 1002,5 10 0,0
17.01.2019 01:00:00 4,9 4,5 4,6 8 4 32 18 WSW 1002,4 10 0,6
17.01.2019 00:00:00 5,8 5,1 5,6 15 8 36 19 WSW 1002,2 5 1,0
16.01.2019 23:00:00 5,6 4,6 5,3 22 12 40 21 SW 1001,6 8 0,6
16.01.2019 22:00:00 5,8 3,8 5,3 22 12 40 21 SSW 1001,7 10 0,1
16.01.2019 21:00:00 5,4 3,7 5,1 24 13 40 21 SSW 1002,2 10 0,5
16.01.2019 20:00:00 5,9 2,8 5,6 24 13 43 23 SSW 1002,8 10 0,0
16.01.2019 19:00:00 5,7 2,8 5,4 24 13 40 21 SSW 1003,4 10 0,0
16.01.2019 18:00:00 5,6 2,4 5,2 21 11 36 19 SSW 1004,1 10 0,0
16.01.2019 17:00:00 5,4 2,3 5,0 24 13 40 21 SSW 1004,8 10 0,0
16.01.2019 16:00:00 6,0 2,6 5,8 24 13 36 19 S 1005,4 10 0,0
16.01.2019 15:00:00 6,0 2,6 6,0 18 10 40 21 SSW 1006,3 10 0,0
16.01.2019 14:00:00 6,3 3,0 6,3 21 11 47 25 SSW 1007,2 10 0,0
16.01.2019 13:00:00 6,4 3,6 6,3 24 13 40 21 SSW 1008,2 10 0,0
16.01.2019 12:00:00 6,5 3,6 6,5 21 11 36 19 SSW 1009,4 10 0,0
16.01.2019 11:00:00 6,3 3,4 6,2 22 12 36 19 SSW 1010,2 10 0,0
16.01.2019 10:00:00 6,3 3,2 6,0 18 10 - - SSW 1010,7 10 -
16.01.2019 09:00:00 6,3 3,2 5,9 21 11 36 19 SSW 1010,9 10 0,0
16.01.2019 08:00:00 6,5 3,8 6,0 18 10 36 19 SSW 1011,1 10 0,0
16.01.2019 07:00:00 6,3 4,7 5,9 21 11 32 18 SSW 1011,3 10 0,0
16.01.2019 06:00:00 6,5 4,9 6,1 18 10 29 16 SSW 1011,9 10 0,0
16.01.2019 05:00:00 6,7 5,4 6,3 15 8 32 18 SSW 1012,4 10 0,0
16.01.2019 04:00:00 6,7 5,7 6,3 18 10 29 16 SW 1013,2 8 0,0
16.01.2019 03:00:00 7,0 6,0 6,7 21 11 32 18 SW 1013,9 10 0,0
16.01.2019 02:00:00 7,3 5,6 7,0 18 10 32 18 SW 1014,0 10 0,0
16.01.2019 01:00:00 7,4 5,5 7,0 15 8 29 16 SW 1014,5 10 0,0
16.01.2019 00:00:00 7,4 5,2 7,0 16 9 29 16 SW 1015,1 10 0,0
15.01.2019 23:00:00 7,5 4,7 7,1 15 8 25 14 SW 1015,4 10 0,0
15.01.2019 22:00:00 7,5 4,6 7,1 15 8 22 12 SW 1015,9 10 0,0
15.01.2019 21:00:00 7,4 4,4 6,9 15 8 29 16 SW 1016,2 10 0,0
15.01.2019 20:00:00 7,6 4,4 7,1 16 9 32 18 WSW 1016,6 10 0,0
15.01.2019 19:00:00 7,5 4,5 7,0 15 8 29 16 WSW 1016,9 10 0,0
15.01.2019 18:00:00 7,6 4,5 7,1 18 10 32 18 WSW 1016,9 10 0,0
15.01.2019 17:00:00 7,6 4,5 7,2 18 10 36 19 WSW 1017,0 10 0,0

tt = Température de l'air
td = dewpoint
tt 5cm = Température de l'air 5cm
ff = Vitesse du vent
fx = gusts
dd = Direction du vent
ppp = reduced air pressure
vv = visibility
rr = Quantités de précipitations

stations d'obs. à proximité